QPF
0.07 0.08 0.07 0.08 0.09 0.07 0.06 0.06 0.06 0.04 0.04 0.04 0.04 0.03 0.02 0.02 0.01 0.02 0.01 0.01 0.01 0.02 0.02 0.01 0.01 0.01 0.02 0.02 0.04 0.05 0.06 0.06 0.04 0.03 0.03 0.03 0.04 0.03
0.07 0.06 0.06 0.06 0.08 0.09 0.07 0.06 0.05 0.05 0.04 0.03 0.03 0.02 0.02 0.01 0.01 0.02 0.01 0.01 0.01 0.02 0.02 0.02 0.01 0.01 0.01 0.01 0.03 0.05 0.06 0.06 0.05 0.04 0.04 0.03 0.04 0.03
0.05 0.04 0.05 0.05 0.07 0.08 0.07 0.05 0.04 0.04 0.05 0.04 0.03 0.03 0.04 0.03 0.03 0.03 0.02 0.02 0.02 0.01 0.02 0.02 0.01 0.01 0.01 0.02 0.03 0.05 0.06 0.07 0.06 0.05 0.05 0.05 0.05 0.05
0.04 0.04 0.04 0.04 0.04 0.05 0.06 0.06 0.04 0.04 0.04 0.04 0.03 0.03 0.04 0.04 0.04 0.04 0.02 0.01 0.02 0.02 0.02 0.02 0.03 0.02 0.02 0.02 0.02 0.04 0.05 0.07 0.07 0.07 0.06 0.06 0.06 0.06
0.04 0.04 0.04 0.05 0.05 0.04 0.04 0.05 0.05 0.04 0.04 0.03 0.03 0.03 0.03 0.03 0.03 0.02 0.02 0.03 0.03 0.02 0.03 0.03 0.03 0.03 0.03 0.03 0.02 0.03 0.05 0.08 0.08 0.09 0.08 0.05 0.05 0.09
0.06 0.05 0.04 0.04 0.04 0.04 0.04 0.05 0.06 0.05 0.04 0.03 0.03 0.03 0.02 0.02 0.03 0.02 0.03 0.03 0.03 0.03 0.03 0.03 0.04 0.04 0.04 0.04 0.03 0.03 0.04 0.08 0.09 0.10 0.10 0.08 0.05 0.08
0.05 0.05 0.05 0.04 0.04 0.04 0.04 0.05 0.05 0.04 0.04 0.03 0.04 0.03 0.03 0.03 0.03 0.03 0.03 0.03 0.03 0.03 0.04 0.04 0.04 0.04 0.04 0.04 0.05 0.04 0.04 0.06 0.09 0.09 0.09 0.08 0.06 0.07
0.04 0.04 0.03 0.03 0.03 0.03 0.03 0.03 0.04 0.05 0.04 0.04 0.04 0.04 0.03 0.03 0.03 0.04 0.04 0.04 0.03 0.03 0.04 0.04 0.04 0.04 0.03 0.04 0.05 0.05 0.05 0.06 0.07 0.08 0.08 0.08 0.07 0.06
0.02 0.01 0.01 0.02 0.03 0.04 0.04 0.03 0.04 0.03 0.03 0.04 0.03 0.03 0.03 0.03 0.05 0.05 0.05 0.04 0.04 0.04 0.04 0.05 0.05 0.04 0.04 0.04 0.05 0.06 0.06 0.06 0.06 0.07 0.07 0.07 0.06 0.05
0.01 0.01 0.02 0.03 0.04 0.05 0.04 0.03 0.02 0.02 0.02 0.03 0.03 0.03 0.02 0.03 0.04 0.05 0.05 0.05 0.04 0.04 0.05 0.05 0.06 0.05 0.05 0.05 0.06 0.06 0.06 0.06 0.06 0.06 0.07 0.07 0.06 0.05
0.02 0.03 0.04 0.04 0.04 0.03 0.02 0.02 0.02 0.02 0.02 0.02 0.02 0.02 0.02 0.01 0.02 0.03 0.04 0.04 0.04 0.03 0.05 0.08 0.07 0.07 0.07 0.06 0.06 0.07 0.08 0.07 0.06 0.05 0.05 0.06 0.06 0.04
0.03 0.02 0.02 0.02 0.02 0.02 0.02 0.02 0.02 0.02 0.02 0.02 0.02 0.01 0.02 0.02 0.02 0.03 0.04 0.05 0.05 0.04 0.04 0.08 0.09 0.09 0.10 0.09 0.09 0.09 0.09 0.08 0.06 0.05 0.04 0.04 0.04 0.03
0.01 0.01 0.01 0.01 0.01 0.01 0.01 0.02 0.02 0.02 0.03 0.02 0.03 0.03 0.03 0.03 0.03 0.03 0.04 0.04 0.05 0.05 0.05 0.08 0.10 0.10 0.10 0.10 0.10 0.10 0.10 0.08 0.06 0.05 0.04 0.03 0.03 0.03
0.01 0.01 0.01 0.01 0.01 0.01 0.01 0.02 0.02 0.03 0.03 0.03 0.03 0.03 0.03 0.03 0.03 0.03 0.04 0.04 0.05 0.06 0.07 0.08 0.08 0.08 0.09 0.09 0.11 0.10 0.08 0.07 0.06 0.04 0.03 0.04 0.04 0.04
0.02 0.02 0.01 0.01 0.01 0.01 0.01 0.02 0.02 0.03 0.04 0.04 0.04 0.03 0.04 0.04 0.04 0.05 0.05 0.04 0.05 0.07 0.08 0.08 0.08 0.07 0.09 0.10 0.11 0.12 0.10 0.07 0.05 0.04 0.03 0.04 0.05 0.04
0.02 0.01 0.01 0.01 0.01 0.01 0.01 0.02 0.03 0.04 0.05 0.05 0.06 0.05 0.05 0.05 0.05 0.04 0.04 0.04 0.06 0.07 0.07 0.08 0.08 0.08 0.09 0.09 0.11 0.12 0.11 0.09 0.06 0.04 0.03 0.03 0.04 0.05
0.01 0.01 0.01 0.02 0.02 0.02 0.02 0.03 0.03 0.04 0.05 0.05 0.05 0.06 0.06 0.06 0.06 0.05 0.06 0.07 0.08 0.08 0.08 0.08 0.09 0.10 0.10 0.09 0.09 0.11 0.11 0.10 0.07 0.05 0.04 0.04 0.04 0.05
0.02 0.02 0.02 0.02 0.02 0.03 0.04 0.04 0.05 0.05 0.05 0.04 0.05 0.06 0.07 0.07 0.06 0.06 0.07 0.08 0.09 0.10 0.09 0.08 0.09 0.11 0.11 0.10 0.07 0.08 0.09 0.09 0.08 0.06 0.04 0.04 0.03 0.04
0.02 0.02 0.02 0.03 0.03 0.04 0.04 0.04 0.05 0.06 0.06 0.06 0.07 0.06 0.07 0.08 0.08 0.08 0.08 0.09 0.09 0.10 0.09 0.07 0.07 0.07 0.08 0.08 0.07 0.06 0.06 0.07 0.06 0.04 0.04 0.03 0.03 0.04
0.02 0.02 0.02 0.02 0.03 0.03 0.03 0.03 0.04 0.05 0.06 0.07 0.07 0.07 0.07 0.09 0.10 0.11 0.11 0.10 0.09 0.10 0.10 0.08 0.07 0.07 0.07 0.07 0.05 0.04 0.04 0.05 0.05 0.04 0.03 0.03 0.03 0.03
0.01 0.02 0.02 0.02 0.02 0.02 0.02 0.03 0.03 0.03 0.04 0.04 0.06 0.06 0.07 0.08 0.10 0.11 0.13 0.15 0.12 0.11 0.09 0.08 0.08 0.07 0.07 0.06 0.05 0.04 0.04 0.04 0.04 0.04 0.03 0.03 0.04 0.03
0.01 0.01 0.01 0.01 0.01 0.01 0.02 0.03 0.04 0.05 0.05 0.04 0.04 0.05 0.05 0.07 0.09 0.10 0.11 0.14 0.14 0.12 0.09 0.08 0.08 0.08 0.06 0.05 0.05 0.05 0.05 0.03 0.03 0.03 0.04 0.04 0.04 0.04
0.01 0.01 0.01 0.01 0.01 0.02 0.03 0.04 0.04 0.04 0.04 0.04 0.04 0.04 0.04 0.04 0.06 0.07 0.08 0.10 0.11 0.10 0.07 0.07 0.08 0.08 0.07 0.05 0.04 0.04 0.04 0.03 0.03 0.03 0.05 0.06 0.05 0.04
MSLP
1005.58 1005.50 1005.48 1005.48 1005.49 1005.46 1005.38 1005.23 1004.99 1004.69 1004.33 1003.95 1003.59 1003.27 1003.02 1002.86 1002.79 1002.80 1002.86 1002.95 1003.04 1003.11 1003.13 1003.10 1003.05 1002.99 1002.97 1003.01 1003.16 1003.44 1003.86 1004.40 1005.06 1005.78 1006.54 1007.29 1007.99 1008.62
1004.66 1004.47 1004.34 1004.27 1004.22 1004.18 1004.11 1003.99 1003.82 1003.58 1003.28 1002.96 1002.64 1002.35 1002.10 1001.93 1001.83 1001.80 1001.83 1001.88 1001.94 1001.98 1002.00 1001.98 1001.95 1001.92 1001.94 1002.03 1002.23 1002.56 1003.03 1003.63 1004.34 1005.13 1005.95 1006.75 1007.51 1008.19
1003.96 1003.65 1003.40 1003.22 1003.10 1002.99 1002.89 1002.77 1002.60 1002.38 1002.12 1001.83 1001.53 1001.24 1001.00 1000.81 1000.69 1000.63 1000.62 1000.65 1000.69 1000.73 1000.74 1000.75 1000.75 1000.76 1000.82 1000.96 1001.22 1001.60 1002.12 1002.78 1003.55 1004.39 1005.28 1006.15 1006.97 1007.72
1003.50 1003.07 1002.71 1002.42 1002.18 1001.99 1001.82 1001.63 1001.42 1001.18 1000.91 1000.60 1000.29 1000.00 999.74 999.53 999.39 999.30 999.27 999.29 999.32 999.36 999.40 999.43 999.46 999.51 999.62 999.80 1000.10 1000.53 1001.11 1001.82 1002.65 1003.56 1004.51 1005.46 1006.37 1007.19
1003.24 1002.71 1002.24 1001.84 1001.49 1001.19 1000.92 1000.64 1000.36 1000.04 999.71 999.36 999.01 998.68 998.39 998.16 997.99 997.89 997.85 997.86 997.90 997.95 998.01 998.06 998.12 998.21 998.35 998.57 998.91 999.38 1000.00 1000.76 1001.65 1002.63 1003.67 1004.71 1005.71 1006.64
1003.08 1002.48 1001.93 1001.43 1000.99 1000.58 1000.18 999.80 999.40 998.99 998.57 998.14 997.73 997.35 997.02 996.76 996.57 996.46 996.42 996.43 996.48 996.55 996.63 996.71 996.79 996.91 997.07 997.32 997.69 998.19 998.85 999.66 1000.62 1001.67 1002.80 1003.94 1005.04 1006.07
1002.93 1002.29 1001.68 1001.11 1000.57 1000.06 999.56 999.06 998.54 998.02 997.49 996.97 996.48 996.04 995.66 995.37 995.17 995.06 995.03 995.05 995.12 995.22 995.32 995.42 995.53 995.67 995.86 996.13 996.53 997.06 997.76 998.62 999.63 1000.76 1001.96 1003.20 1004.39 1005.51
1002.68 1002.02 1001.37 1000.75 1000.15 999.55 998.95 998.34 997.72 997.08 996.45 995.83 995.26 994.76 994.34 994.02 993.81 993.70 993.68 993.73 993.83 993.96 994.10 994.23 994.38 994.55 994.77 995.08 995.50 996.07 996.81 997.72 998.78 999.97 1001.24 1002.54 1003.81 1004.99
1002.28 1001.60 1000.94 1000.29 999.63 998.97 998.29 997.58 996.85 996.12 995.39 994.68 994.04 993.47 993.01 992.67 992.46 992.36 992.37 992.45 992.60 992.77 992.96 993.15 993.35 993.58 993.85 994.21 994.68 995.30 996.08 997.03 998.13 999.35 1000.67 1002.00 1003.31 1004.52
1001.72 1001.04 1000.35 999.67 998.97 998.25 997.50 996.71 995.90 995.08 994.27 993.49 992.77 992.16 991.66 991.31 991.09 991.01 991.04 991.18 991.38 991.62 991.89 992.16 992.45 992.76 993.12 993.55 994.10 994.78 995.61 996.59 997.72 998.96 1000.28 1001.61 1002.90 1004.10
1001.09 1000.37 999.65 998.92 998.18 997.40 996.59 995.74 994.86 993.96 993.07 992.23 991.46 990.80 990.28 989.91 989.69 989.63 989.70 989.89 990.17 990.50 990.87 991.26 991.66 992.10 992.57 993.11 993.75 994.51 995.39 996.41 997.55 998.78 1000.06 1001.35 1002.58 1003.71
1000.46 999.69 998.91 998.13 997.33 996.49 995.62 994.70 993.76 992.80 991.85 990.95 990.13 989.44 988.89 988.50 988.29 988.25 988.37 988.62 988.98 989.42 989.92 990.44 991.00 991.58 992.20 992.87 993.62 994.46 995.40 996.45 997.57 998.77 999.98 1001.18 1002.31 1003.34
999.95 999.10 998.25 997.40 996.53 995.62 994.68 993.71 992.71 991.69 990.69 989.74 988.89 988.16 987.59 987.19 986.99 986.98 987.14 987.46 987.91 988.47 989.10 989.78 990.49 991.23 992.01 992.82 993.69 994.61 995.60 996.64 997.74 998.87 999.99 1001.07 1002.08 1002.98
999.62 998.70 997.77 996.84 995.89 994.92 993.91 992.88 991.83 990.77 989.73 988.75 987.86 987.11 986.52 986.13 985.93 985.94 986.15 986.54 987.09 987.75 988.51 989.33 990.20 991.10 992.02 992.96 993.92 994.90 995.92 996.95 997.99 999.03 1000.04 1000.99 1001.87 1002.63
999.53 998.54 997.54 996.53 995.51 994.48 993.43 992.35 991.26 990.17 989.11 988.11 987.21 986.45 985.86 985.47 985.29 985.33 985.58 986.03 986.65 987.41 988.28 989.22 990.21 991.22 992.25 993.28 994.30 995.32 996.32 997.31 998.28 999.21 1000.10 1000.92 1001.66 1002.30
999.66 998.62 997.58 996.52 995.46 994.39 993.31 992.22 991.11 990.02 988.96 987.97 987.08 986.33 985.75 985.37 985.21 985.28 985.57 986.06 986.73 987.55 988.49 989.51 990.57 991.65 992.73 993.79 994.82 995.82 996.77 997.69 998.56 999.38 1000.14 1000.83 1001.45 1001.98
999.97 998.93 997.87 996.81 995.75 994.68 993.60 992.52 991.44 990.37 989.34 988.39 987.53 986.81 986.27 985.92 985.78 985.88 986.19 986.70 987.40 988.24 989.19 990.22 991.29 992.37 993.43 994.46 995.44 996.37 997.24 998.05 998.81 999.51 1000.15 1000.73 1001.24 1001.69
1000.39 999.39 998.38 997.35 996.33 995.31 994.28 993.25 992.22 991.22 990.26 989.36 988.56 987.90 987.41 987.10 987.00 987.11 987.43 987.94 988.62 989.44 990.35 991.33 992.34 993.34 994.31 995.24 996.12 996.93 997.68 998.37 999.00 999.58 1000.11 1000.59 1001.03 1001.41
1000.83 999.93 999.00 998.07 997.13 996.19 995.25 994.30 993.37 992.46 991.58 990.78 990.06 989.47 989.04 988.78 988.71 988.83 989.14 989.62 990.25 991.00 991.83 992.70 993.58 994.45 995.28 996.06 996.78 997.45 998.05 998.61 999.11 999.58 1000.02 1000.42 1000.79 1001.14
1001.26 1000.48 999.68 998.86 998.04 997.22 996.39 995.56 994.74 993.94 993.17 992.47 991.84 991.33 990.96 990.75 990.70 990.82 991.10 991.53 992.09 992.73 993.42 994.15 994.87 995.56 996.22 996.82 997.37 997.87 998.32 998.74 999.14 999.51 999.87 1000.21 1000.53 1000.84
1001.65 1001.01 1000.34 999.66 998.98 998.29 997.59 996.89 996.19 995.50 994.84 994.23 993.70 993.27 992.95 992.78 992.74 992.85 993.09 993.44 993.90 994.41 994.96 995.51 996.05 996.56 997.03 997.44 997.82 998.16 998.48 998.78 999.08 999.37 999.67 999.96 1000.24 1000.51
1001.99 1001.49 1000.96 1000.42 999.87 999.31 998.73 998.15 997.57 996.98 996.42 995.91 995.45 995.08 994.81 994.65 994.61 994.69 994.87 995.15 995.49 995.87 996.27 996.66 997.02 997.34 997.63 997.89 998.11 998.32 998.52 998.73 998.96 999.19 999.44 999.70 999.95 1000.17
1002.30 1001.92 1001.52 1001.10 1000.67 1000.22 999.75 999.27 998.78 998.29 997.81 997.36 996.95 996.62 996.37 996.22 996.16 996.20 996.33 996.52 996.75 997.01 997.26 997.50 997.71 997.89 998.03 998.15 998.26 998.37 998.50 998.65 998.82 999.02 999.24 999.46 999.67 999.85
Thickness
5736 5734 5733 5733 5732 5731 5730 5728 5723 5720 5723 5726 5726 5727 5725 5723 5719 5718 5716 5713 5711 5709 5707 5706 5705 5704 5703 5702 5701 5701 5700 5700 5700 5700 5700 5700 5700 5700
5730 5728 5726 5728 5727 5726 5725 5724 5722 5718 5717 5721 5720 5721 5719 5718 5714 5713 5712 5709 5707 5705 5702 5701 5700 5698 5697 5696 5696 5695 5695 5695 5694 5694 5695 5695 5695 5695
5724 5723 5721 5720 5720 5720 5720 5719 5718 5716 5711 5715 5716 5715 5712 5709 5708 5707 5707 5705 5705 5700 5698 5696 5695 5693 5692 5691 5690 5689 5689 5689 5689 5689 5690 5690 5691 5691
5719 5717 5716 5716 5713 5713 5713 5712 5711 5709 5706 5704 5707 5707 5705 5704 5702 5700 5702 5702 5700 5697 5694 5692 5690 5689 5687 5686 5685 5684 5684 5684 5683 5683 5684 5685 5686 5686
5714 5712 5711 5709 5707 5707 5705 5705 5704 5705 5702 5701 5702 5702 5700 5699 5695 5695 5695 5693 5694 5693 5689 5687 5685 5684 5682 5681 5680 5679 5678 5678 5678 5678 5679 5680 5681 5681
5709 5707 5705 5703 5702 5699 5699 5697 5697 5696 5696 5696 5695 5695 5693 5692 5689 5688 5687 5686 5687 5688 5686 5684 5681 5679 5677 5676 5675 5674 5673 5672 5672 5672 5673 5673 5674 5675
5703 5701 5699 5697 5694 5692 5692 5690 5688 5687 5688 5688 5687 5686 5685 5682 5681 5682 5680 5680 5680 5681 5679 5679 5678 5677 5674 5671 5670 5669 5667 5667 5666 5666 5666 5667 5668 5669
5697 5695 5693 5692 5689 5685 5682 5680 5678 5677 5678 5677 5678 5676 5675 5675 5674 5674 5672 5671 5670 5674 5672 5673 5674 5672 5671 5670 5667 5664 5662 5661 5660 5660 5659 5660 5661 5662
5690 5688 5688 5687 5682 5680 5676 5673 5671 5669 5667 5667 5668 5668 5667 5667 5665 5664 5663 5663 5663 5666 5664 5665 5667 5666 5666 5665 5661 5659 5656 5655 5654 5654 5653 5653 5654 5655
5684 5682 5679 5677 5675 5671 5669 5668 5667 5665 5663 5661 5662 5660 5660 5659 5657 5656 5655 5654 5656 5658 5657 5657 5660 5659 5660 5658 5655 5654 5652 5650 5648 5648 5647 5648 5648 5649
5677 5675 5672 5669 5664 5660 5660 5660 5659 5658 5656 5654 5652 5651 5649 5648 5647 5647 5647 5648 5649 5651 5651 5650 5651 5651 5652 5652 5650 5648 5646 5644 5643 5642 5641 5642 5642 5643
5669 5667 5664 5660 5654 5651 5651 5651 5650 5650 5649 5649 5646 5645 5644 5643 5641 5640 5640 5640 5642 5643 5644 5641 5642 5642 5642 5645 5644 5642 5640 5638 5637 5637 5636 5637 5637 5639
5662 5660 5657 5651 5647 5644 5643 5643 5642 5640 5641 5641 5641 5640 5639 5639 5637 5636 5635 5633 5633 5634 5636 5633 5634 5634 5634 5636 5636 5636 5635 5634 5633 5632 5632 5632 5632 5634
5653 5652 5649 5643 5639 5637 5637 5635 5633 5632 5635 5635 5635 5634 5634 5633 5632 5630 5628 5627 5626 5627 5626 5626 5626 5626 5627 5627 5628 5629 5629 5629 5629 5629 5629 5628 5628 5629
5644 5641 5637 5634 5632 5633 5630 5628 5628 5629 5629 5628 5627 5627 5627 5626 5625 5623 5622 5620 5620 5620 5620 5618 5619 5620 5620 5621 5622 5623 5623 5623 5624 5625 5626 5626 5626 5627
5636 5633 5630 5628 5626 5625 5625 5624 5623 5622 5621 5620 5620 5620 5620 5619 5618 5618 5617 5617 5615 5614 5613 5612 5611 5612 5613 5614 5615 5616 5617 5618 5619 5620 5621 5622 5622 5623
5626 5627 5627 5625 5622 5621 5620 5618 5617 5615 5613 5612 5612 5612 5612 5612 5611 5611 5610 5609 5608 5608 5607 5606 5606 5606 5606 5607 5608 5610 5611 5612 5614 5615 5614 5617 5618 5620
5617 5621 5619 5617 5615 5614 5613 5611 5609 5607 5606 5605 5604 5604 5604 5604 5604 5603 5603 5602 5601 5602 5602 5602 5601 5600 5600 5602 5600 5603 5605 5606 5608 5608 5610 5611 5613 5615
5613 5614 5612 5610 5608 5607 5606 5604 5602 5600 5598 5598 5598 5597 5597 5597 5597 5596 5596 5595 5596 5596 5597 5597 5596 5596 5596 5597 5597 5595 5599 5600 5601 5602 5604 5607 5609 5610
5608 5607 5604 5602 5600 5599 5598 5596 5595 5594 5592 5591 5590 5590 5590 5590 5589 5589 5589 5589 5590 5591 5591 5591 5591 5591 5591 5592 5593 5591 5591 5595 5596 5597 5599 5600 5601 5601
5602 5599 5597 5595 5593 5591 5590 5588 5587 5586 5585 5584 5583 5582 5583 5583 5583 5583 5583 5582 5583 5585 5586 5586 5586 5584 5586 5586 5586 5587 5587 5586 5589 5590 5592 5593 5594 5596
5592 5591 5589 5587 5585 5583 5582 5581 5580 5579 5578 5577 5577 5577 5576 5577 5577 5576 5577 5578 5579 5580 5581 5581 5581 5580 5581 5581 5582 5582 5582 5582 5581 5581 5583 5585 5588 5591
5584 5582 5581 5580 5579 5576 5575 5574 5574 5573 5572 5571 5571 5571 5570 5571 5571 5572 5573 5573 5574 5575 5575 5575 5576 5576 5576 5577 5578 5578 5577 5577 5578 5577 5578 5578 5580 5582